Погода в Овингс Миллс

США     39°25′08″N   76°46′48″W
темп.,
°C
ветер,
м/с
пор.,
м/с
влажн.,
%
обл.,
%
осадки,
мм/ч
давл.,
гПа
погр.,
м
6 мая, чт
чт623:00+11сз713630 0.0 1014885
02:00+9сз511625 0.0 1016962
05:00+7сз411645 0.0 1016517
08:00+8ссз59684 0.0 1018885
11:00+12ссз46548 0.0 10181421
14:00+15сз34477 0.0 10161593
17:00+15ссз3447100 0.0 10151643
20:00+12ссв1157100 0.0 101511
7 мая, пт
пт723:00+11юв1161100 0.0 101511
02:00+9юв017293 0.0 101310
05:00+7в117837 0.0 101211
08:00+10вюв247097 0.0 1011267
11:00+15ююв3455100 0.1 10101618
14:00+13з4473100 0.9 1009668
17:00+10з6987100 1.3 1008623
20:00+7с31095100 6.1 1010662
8 мая, сб
сб823:00+7зсз3894100 0.6 1010500
02:00+4сз511915 0.7 1010457
05:00+3сз411913 0.0 1010430
08:00+5сз5108164 0.0 1013666
11:00+10сз685999 0.0 10131544
14:00+12зсз685394 0.1 10131893
17:00+14зсз684821 0.1 10131843
20:00+10з513655 0.2 1015658
9 мая, вс
вс923:00+9зсз615650 0.0 1017561
02:00+6зсз410835 0.0 1019231
05:00+5сз2475100 0.0 101990
08:00+8з246529 0.0 1020211
11:00+13зюз3649100 0.0 10191630
14:00+15юз5650100 0.0 10171735
17:00+8ю3595100 3.3 1016356
20:00+8юв2497100 6.7 1014295
10 мая, пн
пн1023:00+8юв3999100 3.4 1012358
02:00+9юв3899100 4.3 1010327
05:00+8ююв27100100 0.2 1007210
08:00+11ююз31394100 0.4 1007362
11:00+18юз51185100 0.3 1006525
14:00+21юз61279100 0.6 10051301
17:00+16зсз71790100 5.3 10051022
20:00+11зсз8138057 5.4 1011980